UKV5035 RORS-ROIG

Flight info

Callsign UKV5035
Flight time 0h 20m
Altitude 12000
Route SHUJI DCT UMAKI DCT KAMPU DCT MASAN DCT YAIMA DCT JOTTO DCT BALAS
Aircraft A321/M-SDE3FGHIRWY/LB1

Departure

Time 2026-05-07 20:41
Airport Shimojishima Airport (RORS)

Arrival

Time 2026-05-07 21:02
Airport New Ishigaki Airport (ROIG)
Time Latitude Longitude Altitude Speed Heading
2026-05-07 20:26 24.82886 125.14788 31 ft 0 kts 75°
2026-05-07 20:35 24.82884 125.14776 31 ft 4 kts 76°
2026-05-07 20:35 24.82877 125.14747 30 ft 4 kts 76°
2026-05-07 20:35 24.82870 125.14718 30 ft 4 kts 72°
2026-05-07 20:35 24.82861 125.14691 30 ft 4 kts 64°
2026-05-07 20:36 24.82846 125.14666 30 ft 4 kts 42°
2026-05-07 20:36 24.82827 125.14655 30 ft 2 kts 347°
2026-05-07 20:36 24.82826 125.14655 30 ft 0 kts 346°
2026-05-07 20:38 24.82857 125.14647 29 ft 10 kts 346°
2026-05-07 20:38 24.82943 125.14624 27 ft 15 kts 346°
2026-05-07 20:38 24.83053 125.14593 26 ft 18 kts 346°
2026-05-07 20:38 24.83185 125.14557 23 ft 21 kts 346°
2026-05-07 20:39 24.83333 125.14516 22 ft 23 kts 346°
2026-05-07 20:39 24.83492 125.14473 22 ft 24 kts 346°
2026-05-07 20:39 24.83660 125.14427 22 ft 26 kts 346°
2026-05-07 20:39 24.83838 125.14380 21 ft 27 kts 346°
2026-05-07 20:40 24.84010 125.14321 23 ft 21 kts 316°
2026-05-07 20:40 24.84005 125.14178 24 ft 17 kts 255°
2026-05-07 20:40 24.83961 125.14146 24 ft 8 kts 174°
2026-05-07 20:40 24.83935 125.14152 24 ft 0 kts 164°
2026-05-07 20:41 24.83860 125.14176 24 ft 49 kts 164°
2026-05-07 20:41 24.83217 125.14352 26 ft 138 kts 166°
2026-05-07 20:41 24.82079 125.14691 366 ft 180 kts 156°
2026-05-07 20:41 24.80888 125.15093 1345 ft 180 kts 167°
2026-05-07 20:42 24.79647 125.15240 2288 ft 183 kts 192°
2026-05-07 20:42 24.78456 125.14662 2683 ft 196 kts 209°
2026-05-07 20:42 24.77215 125.13865 2831 ft 218 kts 211°
2026-05-07 20:42 24.75827 125.12952 3048 ft 246 kts 210°
2026-05-07 20:43 24.74299 125.11968 3653 ft 259 kts 210°
2026-05-07 20:43 24.72712 125.10972 4469 ft 264 kts 210°
2026-05-07 20:43 24.71210 125.09836 5297 ft 268 kts 227°
2026-05-07 20:43 24.70249 125.08085 6119 ft 270 kts 249°
2026-05-07 20:44 24.69570 125.06148 6939 ft 273 kts 249°
2026-05-07 20:44 24.68891 125.04188 7740 ft 275 kts 249°
2026-05-07 20:44 24.68205 125.02210 8552 ft 278 kts 249°
2026-05-07 20:44 24.67508 125.00216 9347 ft 281 kts 249°
2026-05-07 20:45 24.66798 124.98193 10098 ft 285 kts 249°
2026-05-07 20:45 24.66063 124.96108 10477 ft 303 kts 249°
2026-05-07 20:45 24.65281 124.93892 10631 ft 326 kts 249°
2026-05-07 20:45 24.64430 124.91481 10770 ft 349 kts 249°
2026-05-07 20:46 24.63522 124.88915 10885 ft 370 kts 249°
2026-05-07 20:46 24.62565 124.86213 11070 ft 387 kts 249°
2026-05-07 20:46 24.61580 124.83425 11564 ft 394 kts 249°
2026-05-07 20:46 24.60589 124.80608 11921 ft 396 kts 250°
2026-05-07 20:47 24.59687 124.77746 12020 ft 397 kts 252°
2026-05-07 20:47 24.58882 124.74833 12071 ft 399 kts 254°
2026-05-07 20:47 24.58130 124.71889 12033 ft 399 kts 255°
2026-05-07 20:47 24.57397 124.68950 12032 ft 399 kts 255°
2026-05-07 20:48 24.56656 124.66012 12034 ft 399 kts 254°
2026-05-07 20:48 24.55909 124.63120 12033 ft 399 kts 254°
2026-05-07 20:48 24.55135 124.60194 12033 ft 399 kts 253°
2026-05-07 20:48 24.54343 124.57256 12029 ft 398 kts 253°
2026-05-07 20:49 24.53551 124.54353 11500 ft 395 kts 253°
2026-05-07 20:49 24.52778 124.51525 11305 ft 376 kts 253°
2026-05-07 20:49 24.52049 124.48843 11186 ft 357 kts 253°
2026-05-07 20:49 24.51174 124.46400 11065 ft 340 kts 242°
2026-05-07 20:50 24.49881 124.44299 10943 ft 326 kts 230°
2026-05-07 20:50 24.48280 124.42618 10812 ft 313 kts 219°
2026-05-07 20:50 24.46547 124.41245 10702 ft 301 kts 217°
2026-05-07 20:50 24.44873 124.39921 10444 ft 291 kts 217°
2026-05-07 20:51 24.43245 124.38626 10320 ft 290 kts 217°
2026-05-07 20:51 24.41611 124.37328 10193 ft 290 kts 217°
2026-05-07 20:51 24.39977 124.36035 10062 ft 289 kts 217°
2026-05-07 20:51 24.38343 124.34745 9742 ft 292 kts 217°
2026-05-07 20:52 24.36681 124.33432 9322 ft 291 kts 217°
2026-05-07 20:52 24.35063 124.32153 8968 ft 289 kts 217°
2026-05-07 20:52 24.33439 124.30865 8594 ft 287 kts 217°
2026-05-07 20:52 24.31833 124.29592 8160 ft 281 kts 217°
2026-05-07 20:53 24.30259 124.28346 7453 ft 276 kts 217°
2026-05-07 20:53 24.28711 124.27123 6766 ft 271 kts 216°
2026-05-07 20:53 24.27207 124.25938 6098 ft 267 kts 216°
2026-05-07 20:53 24.25739 124.24787 5501 ft 248 kts 216°
2026-05-07 20:54 24.24393 124.23731 5083 ft 230 kts 216°
2026-05-07 20:54 24.23129 124.22737 4688 ft 216 kts 216°
2026-05-07 20:54 24.21966 124.21809 4287 ft 197 kts 219°
2026-05-07 20:54 24.21191 124.20764 4226 ft 159 kts 240°
2026-05-07 20:55 24.20852 124.19681 4172 ft 147 kts 259°
2026-05-07 20:55 24.20849 124.18570 4116 ft 146 kts 277°
2026-05-07 20:55 24.21169 124.17527 4050 ft 148 kts 296°
2026-05-07 20:55 24.21754 124.16590 3985 ft 150 kts 303°
2026-05-07 20:56 24.22361 124.15664 3914 ft 149 kts 303°
2026-05-07 20:56 24.22962 124.14741 3841 ft 149 kts 303°
2026-05-07 20:56 24.23561 124.13817 3771 ft 148 kts 303°
2026-05-07 20:56 24.24162 124.12891 3701 ft 149 kts 303°
2026-05-07 20:57 24.24765 124.11966 3628 ft 149 kts 304°
2026-05-07 20:57 24.25140 124.11657 3446 ft 142 kts 323°
2026-05-07 20:57 24.26216 124.11577 3254 ft 160 kts 19°
2026-05-07 20:57 24.27077 124.12290 3220 ft 156 kts 53°
2026-05-07 20:58 24.27612 124.13300 2956 ft 151 kts 68°
2026-05-07 20:58 24.28031 124.14346 2760 ft 149 kts 68°
2026-05-07 20:58 24.28312 124.15034 2650 ft 149 kts 68°
2026-05-07 20:58 24.29237 124.16135 2420 ft 150 kts 42°
2026-05-07 20:59 24.30042 124.16861 2203 ft 150 kts 39°
2026-05-07 20:59 24.30879 124.17540 1985 ft 149 kts 38°
2026-05-07 20:59 24.31706 124.18218 1825 ft 149 kts 38°
2026-05-07 20:59 24.32275 124.18673 1719 ft 149 kts 38°
2026-05-07 21:00 24.33115 124.19315 1531 ft 148 kts 39°
2026-05-07 21:00 24.33937 124.19993 1299 ft 147 kts 38°
2026-05-07 21:00 24.34762 124.20645 1102 ft 146 kts 37°
2026-05-07 21:00 24.35587 124.21304 965 ft 146 kts 38°
2026-05-07 21:01 24.36413 124.21950 775 ft 145 kts 37°
2026-05-07 21:01 24.37227 124.22598 556 ft 143 kts 38°
2026-05-07 21:01 24.38029 124.23238 369 ft 142 kts 38°
2026-05-07 21:01 24.38821 124.23855 214 ft 140 kts 37°
2026-05-07 21:02 24.39561 124.24435 105 ft 116 kts 37°
2026-05-07 21:02 24.39943 124.24746 104 ft 20 kts 34°
2026-05-07 21:02 24.39976 124.24852 108 ft 14 kts 121°
2026-05-07 21:02 24.39908 124.24927 110 ft 14 kts 173°
2026-05-07 21:03 24.39814 124.24871 106 ft 18 kts 215°
2026-05-07 21:03 24.39704 124.24788 104 ft 21 kts 214°
2026-05-07 21:03 24.39596 124.24702 108 ft 17 kts 217°
2026-05-07 21:03 24.39505 124.24627 113 ft 16 kts 216°
2026-05-07 21:04 24.39422 124.24561 115 ft 14 kts 216°
2026-05-07 21:04 24.39338 124.24496 113 ft 16 kts 215°
2026-05-07 21:04 24.39245 124.24421 113 ft 18 kts 216°
2026-05-07 21:04 24.39151 124.24347 115 ft 11 kts 216°
2026-05-07 21:05 24.39111 124.24348 113 ft 5 kts 113°
2026-05-07 21:05 24.39087 124.24388 117 ft 8 kts 125°
2026-05-07 21:05 24.39053 124.24439 113 ft 7 kts 126°
2026-05-07 21:05 24.39044 124.24452 117 ft 2 kts 126°
2026-05-07 21:06 24.39044 124.24453 117 ft 0 kts 126°